,,PA_Meas_PMT16A,,PR_Meas_QMR101_102,,RH_Meas_QMH101,,SR_Meas_QMS101,,TA_Meas_QMH101,,GenWind,,GenWind,
time,status,PA,status,PR,status,RH,status,SR,status,TA,status,DirAvg,status,SpdAvg,
2011-10-04, 00:00:05,VALID,917.993,VALID,0,VALID,94.9268,VALID,0,VALID,20.1108,VALID,42,VALID,0.183594,
2011-10-04, 00:01:05,VALID,917.972,VALID,0,VALID,94.9725,VALID,0,VALID,20.0913,VALID,43,VALID,0.249609,
2011-10-04, 00:02:05,VALID,917.971,VALID,0,VALID,95.0183,VALID,0,VALID,20.1123,VALID,42,VALID,0.127734,
2011-10-04, 00:03:05,VALID,917.99,VALID,0,VALID,95.064,VALID,0,VALID,20.0913,VALID,42,VALID,0,
2011-10-04, 00:04:05,VALID,918.007,VALID,0,VALID,95.0792,VALID,0,VALID,20.0928,VALID,42,VALID,0,
2011-10-04, 00:05:05,VALID,918,VALID,0,VALID,95.0945,VALID,0,VALID,20.1123,VALID,42,VALID,0.0816406,
2011-10-04, 00:06:05,VALID,918.014,VALID,0,VALID,95.0564,VALID,0,VALID,20.0718,VALID,42,VALID,0.224219,
2011-10-04, 00:07:05,VALID,918.021,VALID,0,VALID,95.0792,VALID,0,VALID,20.0718,VALID,42,VALID,0.335547,
2011-10-04, 00:08:05,VALID,918.007,VALID,0,VALID,95.125,VALID,0,VALID,20.0733,VALID,42,VALID,0.172266,
2011-10-04, 00:09:05,VALID,918.002,VALID,0,VALID,95.1707,VALID,0,VALID,20.0733,VALID,42,VALID,0,
2011-10-04, 00:10:05,VALID,917.997,VALID,0,VALID,95.1555,VALID,0,VALID,20.0523,VALID,42,VALID,0.456641,
2011-10-04, 00:11:05,VALID,917.97,VALID,0,VALID,95.003,VALID,0,VALID,20.0538,VALID,42,VALID,0.283984,
2011-10-04, 00:12:05,VALID,917.974,VALID,0,VALID,94.9573,VALID,0,VALID,20.0538,VALID,43,VALID,0.524219,
2011-10-04, 00:13:05,VALID,917.953,VALID,0,VALID,94.881,VALID,0,VALID,20.0343,VALID,42,VALID,0.321484,
2011-10-04, 00:14:05,VALID,917.93,VALID,0,VALID,94.8429,VALID,0,VALID,19.9758,VALID,42,VALID,0.267578,
2011-10-04, 00:15:05,VALID,917.922,VALID,0,VALID,95.003,VALID,0,VALID,19.9758,VALID,42,VALID,0.403516,
2011-10-04, 00:16:05,VALID,917.895,VALID,0,VALID,94.9954,VALID,0,VALID,19.9563,VALID,42,VALID,0.548437,
2011-10-04, 00:17:05,VALID,917.937,VALID,0,VALID,95.1174,VALID,0,VALID,19.9563,VALID,42,VALID,0,
2011-10-04, 00:18:05,VALID,917.923,VALID,0,VALID,95.1707,VALID,0,VALID,19.9563,VALID,42,VALID,0,
2011-10-04, 00:19:05,VALID,917.909,VALID,0,VALID,95.2241,VALID,0,VALID,19.9758,VALID,42,VALID,0,
2011-10-04, 00:20:05,VALID,917.884,VALID,0,VALID,95.2317,VALID,0,VALID,19.9548,VALID,42,VALID,0.134766,
2011-10-04, 00:21:05,VALID,917.85,VALID,0,VALID,95.1707,VALID,0,VALID,19.9563,VALID,42,VALID,0.175391,
2011-10-04, 00:22:05,VALID,917.838,VALID,0,VALID,95.1555,VALID,0,VALID,19.9758,VALID,42,VALID,0.527344,
2011-10-04, 00:23:05,VALID,917.825,VALID,0,VALID,95.1326,VALID,0,VALID,19.9953,VALID,42,VALID,0.473828,
2011-10-04, 00:24:05,VALID,917.835,VALID,0,VALID,95.064,VALID,0,VALID,19.9953,VALID,42,VALID,0.228516,
2011-10-04, 00:25:05,VALID,917.843,VALID,0,VALID,95.0792,VALID,0,VALID,19.9953,VALID,42,VALID,0.446875,
2011-10-04, 00:26:05,VALID,917.86,VALID,0,VALID,95.1174,VALID,0,VALID,19.9953,VALID,42,VALID,0.00429688,
2011-10-04, 00:27:05,VALID,917.813,VALID,0,VALID,95.186,VALID,0,VALID,19.9953,VALID,42,VALID,0.258203,
2011-10-04, 00:28:05,VALID,917.81,VALID,0,VALID,95.2165,VALID,0,VALID,19.9953,VALID,42,VALID,0.0515625,
2011-10-04, 00:29:05,VALID,917.821,VALID,0,VALID,95.2393,VALID,0,VALID,20.0148,VALID,42,VALID,0.132422,
2011-10-04, 00:30:05,VALID,917.81,VALID,0,VALID,95.1783,VALID,0,VALID,20.0148,VALID,42,VALID,0.0410156,
2011-10-04, 00:31:05,VALID,917.777,VALID,0,VALID,95.0411,VALID,0,VALID,19.9758,VALID,42,VALID,0.330078,
2011-10-04, 00:32:05,VALID,917.759,VALID,0,VALID,95.003,VALID,0,VALID,19.9758,VALID,42,VALID,0.465625,
2011-10-04, 00:33:05,VALID,917.768,VALID,0,VALID,94.9115,VALID,0,VALID,19.9368,VALID,42,VALID,0.301172,
2011-10-04, 00:34:05,VALID,917.736,VALID,0,VALID,94.9496,VALID,0,VALID,19.9368,VALID,42,VALID,0.111719,
2011-10-04, 00:35:05,VALID,917.724,VALID,0,VALID,94.9115,VALID,0,VALID,19.9368,VALID,42,VALID,0,
2011-10-04, 00:36:05,VALID,917.744,VALID,0,VALID,94.9039,VALID,0,VALID,19.9173,VALID,42,VALID,0.003125,
2011-10-04, 00:37:05,VALID,917.755,VALID,0,VALID,94.8658,VALID,0,VALID,19.9173,VALID,42,VALID,0,
2011-10-04, 00:38:05,VALID,917.746,VALID,0,VALID,94.9115,VALID,0,VALID,19.8978,VALID,42,VALID,0.276953,
2011-10-04, 00:39:05,VALID,917.743,VALID,0,VALID,94.9573,VALID,0,VALID,19.9173,VALID,42,VALID,0.301953,
2011-10-04, 00:40:05,VALID,917.733,VALID,0,VALID,94.9801,VALID,0,VALID,19.8978,VALID,42,VALID,0.0808594,
2011-10-04, 00:41:05,VALID,917.696,VALID,0,VALID,94.9954,VALID,0,VALID,19.8783,VALID,42,VALID,0,
2011-10-04, 00:42:05,VALID,917.648,VALID,0,VALID,95.064,VALID,0,VALID,19.8783,VALID,42,VALID,0,
2011-10-04, 00:43:05,VALID,917.664,VALID,0,VALID,95.064,VALID,0,VALID,19.8978,VALID,42,VALID,0,
2011-10-04, 00:44:05,VALID,917.63,VALID,0,VALID,95.0792,VALID,0,VALID,19.8783,VALID,42,VALID,0.0445312,
2011-10-04, 00:45:05,VALID,917.573,VALID,0,VALID,95.0488,VALID,0,VALID,19.8573,VALID,42,VALID,0,
2011-10-04, 00:46:05,VALID,917.573,VALID,0,VALID,95.0411,VALID,0,VALID,19.8783,VALID,42,VALID,0,
2011-10-04, 00:47:05,VALID,917.539,VALID,0,VALID,95.0488,VALID,0,VALID,19.8783,VALID,42,VALID,0,
2011-10-04, 00:48:05,VALID,917.513,VALID,0,VALID,94.942,VALID,0,VALID,19.8588,VALID,42,VALID,0,
2011-10-04, 00:49:05,VALID,917.486,VALID,0,VALID,94.881,VALID,0,VALID,19.8393,VALID,42,VALID,0,
2011-10-04, 00:50:05,VALID,917.458,VALID,0,VALID,94.8658,VALID,0,VALID,19.8003,VALID,42,VALID,0.240234,
2011-10-04, 00:51:05,VALID,917.442,VALID,0,VALID,94.9496,VALID,0,VALID,19.7808,VALID,42,VALID,0.121875,
2011-10-04, 00:52:05,VALID,917.446,VALID,0,VALID,94.9878,VALID,0,VALID,19.7418,VALID,42,VALID,0,
2011-10-04, 00:53:05,VALID,917.416,VALID,0,VALID,95.1021,VALID,0,VALID,19.7223,VALID,42,VALID,0,
2011-10-04, 00:54:05,VALID,917.409,VALID,0,VALID,95.1326,VALID,0,VALID,19.7223,VALID,42,VALID,0,
2011-10-04, 00:55:05,VALID,917.388,VALID,0,VALID,95.186,VALID,0,VALID,19.7028,VALID,42,VALID,0,
2011-10-04, 00:56:05,VALID,917.396,VALID,0,VALID,95.2393,VALID,0,VALID,19.6638,VALID,42,VALID,0,
2011-10-04, 00:57:05,VALID,917.368,VALID,0,VALID,95.2698,VALID,0,VALID,19.6653,VALID,42,VALID,0.00390625,
2011-10-04, 00:58:05,VALID,917.355,VALID,0,VALID,95.3537,VALID,0,VALID,19.6443,VALID,42,VALID,0.0898438,
2011-10-04, 00:59:05,VALID,917.345,VALID,0,VALID,95.3308,VALID,0,VALID,19.6248,VALID,42,VALID,0.383594,
2011-10-04, 01:00:05,VALID,917.324,VALID,0,VALID,95.3308,VALID,0,VALID,19.6053,VALID,42,VALID,0.373047,
2011-10-04, 01:01:05,VALID,917.313,VALID,0,VALID,95.4299,VALID,0,VALID,19.5858,VALID,42,VALID,0.533594,
2011-10-04, 01:02:05,VALID,917.29,VALID,0,VALID,95.5367,VALID,0,VALID,19.5873,VALID,42,VALID,0.372656,
2011-10-04, 01:03:05,VALID,917.262,VALID,0,VALID,95.5595,VALID,0,VALID,19.5468,VALID,42,VALID,0.238672,
2011-10-04, 01:04:05,VALID,917.279,VALID,0,VALID,95.6129,VALID,0,VALID,19.5468,VALID,43,VALID,0.209375,
2011-10-04, 01:05:05,VALID,917.258,VALID,0,VALID,95.651,VALID,0,VALID,19.5468,VALID,42,VALID,0.291016,
2011-10-04, 01:06:05,VALID,917.223,VALID,0,VALID,95.6586,VALID,0,VALID,19.5468,VALID,43,VALID,0.591797,
2011-10-04, 01:07:05,VALID,917.236,VALID,0,VALID,95.7882,VALID,0,VALID,19.5468,VALID,42,VALID,0.311328,
2011-10-04, 01:08:05,VALID,917.2,VALID,0,VALID,95.8035,VALID,0,VALID,19.5678,VALID,42,VALID,0.708203,
2011-10-04, 01:09:05,VALID,917.207,VALID,0,VALID,95.8645,VALID,0,VALID,19.5858,VALID,43,VALID,0.601953,
2011-10-04, 01:10:05,VALID,917.174,VALID,0,VALID,95.8187,VALID,0,VALID,19.6263,VALID,42,VALID,0.480859,
2011-10-04, 01:11:05,VALID,917.154,VALID,0,VALID,95.8492,VALID,0,VALID,19.6248,VALID,42,VALID,0.661719,
2011-10-04, 01:12:05,VALID,917.127,VALID,0,VALID,95.7654,VALID,0,VALID,19.6248,VALID,42,VALID,0.246875,
2011-10-04, 01:13:05,VALID,917.129,VALID,0,VALID,95.6434,VALID,0,VALID,19.5858,VALID,43,VALID,0.126953,
2011-10-04, 01:14:05,VALID,917.099,VALID,0,VALID,95.6205,VALID,0,VALID,19.5858,VALID,42,VALID,0.309766,
2011-10-04, 01:15:05,VALID,917.101,VALID,0,VALID,95.5824,VALID,0,VALID,19.5663,VALID,42,VALID,0.628516,
2011-10-04, 01:16:05,VALID,917.151,VALID,0,VALID,95.6739,VALID,0,VALID,19.5663,VALID,42,VALID,0.448047,
2011-10-04, 01:17:05,VALID,917.159,VALID,0,VALID,95.651,VALID,0,VALID,19.5663,VALID,43,VALID,0.473437,
2011-10-04, 01:18:05,VALID,917.164,VALID,0,VALID,95.6967,VALID,0,VALID,19.5678,VALID,42,VALID,0.611719,
2011-10-04, 01:19:05,VALID,917.161,VALID,0,VALID,95.6662,VALID,0,VALID,19.5663,VALID,42,VALID,0.886719,
2011-10-04, 01:20:05,VALID,917.175,VALID,0,VALID,95.7654,VALID,0,VALID,19.5648,VALID,42,VALID,0.823047,
2011-10-04, 01:21:05,VALID,917.154,VALID,0,VALID,95.7806,VALID,0.107441,VALID,19.5843,VALID,42,VALID,0.848047,
2011-10-04, 01:22:05,VALID,917.145,VALID,0,VALID,95.712,VALID,0.107441,VALID,19.5648,VALID,42,VALID,0.575391,
2011-10-04, 01:23:05,VALID,917.151,VALID,0,VALID,95.7654,VALID,0,VALID,19.5858,VALID,42,VALID,0.414453,
2011-10-04, 01:24:05,VALID,917.122,VALID,0,VALID,95.7044,VALID,0,VALID,19.5648,VALID,42,VALID,0.464063,
2011-10-04, 01:25:05,VALID,917.096,VALID,0,VALID,95.6662,VALID,0,VALID,19.5843,VALID,42,VALID,0.514063,
2011-10-04, 01:26:05,VALID,917.095,VALID,0,VALID,95.6967,VALID,0.107441,VALID,19.5843,VALID,42,VALID,0.3,
2011-10-04, 01:27:05,VALID,917.079,VALID,0,VALID,95.651,VALID,0.107441,VALID,19.6038,VALID,42,VALID,0.598047,
2011-10-04, 01:28:05,VALID,917.034,VALID,0,VALID,95.6662,VALID,0.107441,VALID,19.6248,VALID,42,VALID,0.509766,
2011-10-04, 01:29:05,VALID,916.996,VALID,0,VALID,95.712,VALID,0,VALID,19.6233,VALID,42,VALID,0.824219,
2011-10-04, 01:30:05,VALID,917.028,VALID,0,VALID,95.7425,VALID,0,VALID,19.6248,VALID,42,VALID,0.883594,
2011-10-04, 01:31:05,VALID,916.995,VALID,0,VALID,95.8187,VALID,0.107441,VALID,19.5843,VALID,42,VALID,0.5375,
2011-10-04, 01:32:05,VALID,916.996,VALID,0,VALID,95.8492,VALID,0,VALID,19.5843,VALID,42,VALID,0.892969,
2011-10-04, 01:33:05,VALID,917.003,VALID,0,VALID,95.9178,VALID,0,VALID,19.5843,VALID,42,VALID,1.09492,
2011-10-04, 01:34:05,VALID,916.985,VALID,0,VALID,95.9407,VALID,0,VALID,19.5663,VALID,42,VALID,0.767969,
2011-10-04, 01:35:05,VALID,916.983,VALID,0,VALID,96.0093,VALID,0,VALID,19.5468,VALID,42,VALID,1.19727,
2011-10-04, 01:36:05,VALID,916.964,VALID,0,VALID,96.0932,VALID,0,VALID,19.5663,VALID,42,VALID,0.707422,
2011-10-04, 01:37:05,VALID,916.953,VALID,0,VALID,96.1236,VALID,0,VALID,19.5468,VALID,42,VALID,0.568359,
2011-10-04, 01:38:05,VALID,916.931,VALID,0,VALID,96.1541,VALID,0,VALID,19.5468,VALID,42,VALID,0.772266,
2011-10-04, 01:39:05,VALID,916.936,VALID,0,VALID,96.1694,VALID,0,VALID,19.5483,VALID,42,VALID,0.552734,
2011-10-04, 01:40:05,VALID,916.925,VALID,0,VALID,96.238,VALID,0,VALID,19.5273,VALID,42,VALID,0.727344,
2011-10-04, 01:41:05,VALID,916.922,VALID,0,VALID,96.2151,VALID,0,VALID,19.5273,VALID,42,VALID,0.610937,
2011-10-04, 01:42:05,VALID,916.91,VALID,0,VALID,96.2609,VALID,0,VALID,19.5678,VALID,42,VALID,0.130078,
2011-10-04, 01:43:05,VALID,916.916,VALID,0,VALID,96.2304,VALID,0,VALID,19.5468,VALID,42,VALID,0.486328,
2011-10-04, 01:44:05,VALID,916.91,VALID,0,VALID,96.1541,VALID,0,VALID,19.5468,VALID,42,VALID,0.599609,
2011-10-04, 01:45:05,VALID,916.924,VALID,0,VALID,96.1313,VALID,0,VALID,19.5468,VALID,42,VALID,0.546094,
2011-10-04, 01:46:05,VALID,916.92,VALID,0,VALID,96.1313,VALID,0,VALID,19.5873,VALID,42,VALID,0.555859,
2011-10-04, 01:47:05,VALID,916.898,VALID,0,VALID,96.0703,VALID,0,VALID,19.5663,VALID,43,VALID,0.485547,
2011-10-04, 01:48:05,VALID,916.898,VALID,0,VALID,96.0322,VALID,0,VALID,19.5858,VALID,42,VALID,0.420703,
2011-10-04, 01:49:05,VALID,916.877,VALID,0,VALID,95.9941,VALID,0,VALID,19.5858,VALID,42,VALID,0.54375,
2011-10-04, 01:50:05,VALID,916.853,VALID,0,VALID,95.9864,VALID,0,VALID,19.6053,VALID,42,VALID,0.340234,
2011-10-04, 01:51:05,VALID,916.841,VALID,0,VALID,95.9559,VALID,0,VALID,19.6263,VALID,42,VALID,0.196484,
2011-10-04, 01:52:05,VALID,916.816,VALID,0,VALID,95.8568,VALID,0,VALID,19.6248,VALID,42,VALID,0.278125,
2011-10-04, 01:53:05,VALID,916.82,VALID,0,VALID,95.8035,VALID,0,VALID,19.6248,VALID,42,VALID,0.269531,
2011-10-04, 01:54:05,VALID,916.766,VALID,0,VALID,95.7577,VALID,0,VALID,19.6443,VALID,42,VALID,0.244531,
2011-10-04, 01:55:05,VALID,916.781,VALID,0,VALID,95.6967,VALID,0,VALID,19.6638,VALID,42,VALID,0.410547,
2011-10-04, 01:56:05,VALID,916.756,VALID,0,VALID,95.6281,VALID,0,VALID,19.6848,VALID,42,VALID,0.541797,
2011-10-04, 01:57:05,VALID,916.73,VALID,0,VALID,95.4985,VALID,0,VALID,19.6638,VALID,42,VALID,0.303125,
2011-10-04, 01:58:05,VALID,916.735,VALID,0,VALID,95.4147,VALID,0,VALID,19.6653,VALID,42,VALID,0.297656,
2011-10-04, 01:59:05,VALID,916.73,VALID,0,VALID,95.3766,VALID,0,VALID,19.6443,VALID,42,VALID,0.353906,
2011-10-04, 02:00:05,VALID,916.731,VALID,0,VALID,95.3689,VALID,0,VALID,19.6248,VALID,42,VALID,0.348828,
2011-10-04, 02:01:05,VALID,916.731,VALID,0,VALID,95.3613,VALID,0,VALID,19.6653,VALID,42,VALID,0.5125,
2011-10-04, 02:02:05,VALID,916.768,VALID,0,VALID,95.3079,VALID,0,VALID,19.6443,VALID,42,VALID,0.521094,
2011-10-04, 02:03:05,VALID,916.773,VALID,0,VALID,95.2088,VALID,0,VALID,19.6248,VALID,42,VALID,0.796094,
2011-10-04, 02:04:05,VALID,916.781,VALID,0,VALID,95.1097,VALID,0,VALID,19.6248,VALID,42,VALID,0.586328,
2011-10-04, 02:05:05,VALID,916.786,VALID,0,VALID,95.0716,VALID,0,VALID,19.6848,VALID,42,VALID,0.476563,
2011-10-04, 02:06:05,VALID,916.77,VALID,0,VALID,94.9725,VALID,0,VALID,19.6638,VALID,43,VALID,0.0214844,
2011-10-04, 02:07:05,VALID,916.766,VALID,0,VALID,95.0716,VALID,0,VALID,19.7028,VALID,42,VALID,0.377344,
2011-10-04, 02:08:05,VALID,916.771,VALID,0,VALID,95.0945,VALID,0,VALID,19.7223,VALID,42,VALID,0.174219,
2011-10-04, 02:09:05,VALID,916.746,VALID,0,VALID,95.1402,VALID,0,VALID,19.7223,VALID,42,VALID,0.210156,
2011-10-04, 02:10:05,VALID,916.727,VALID,0,VALID,95.1021,VALID,0,VALID,19.7028,VALID,42,VALID,0.157422,
2011-10-04, 02:11:05,VALID,916.707,VALID,0,VALID,94.8505,VALID,0,VALID,19.7028,VALID,42,VALID,0.304688,
2011-10-04, 02:12:05,VALID,916.696,VALID,0,VALID,94.6905,VALID,0,VALID,19.7238,VALID,43,VALID,0.320313,
2011-10-04, 02:13:04,VALID,916.701,VALID,0,VALID,94.5075,VALID,0,VALID,19.7223,VALID,42,VALID,0.341797,
2011-10-04, 02:14:04,VALID,916.682,VALID,0,VALID,94.4617,VALID,0,VALID,19.7823,VALID,42,VALID,0.507031,
2011-10-04, 02:15:04,VALID,916.693,VALID,0,VALID,94.5761,VALID,0,VALID,19.7613,VALID,42,VALID,0.536328,
2011-10-04, 02:16:04,VALID,916.705,VALID,0,VALID,94.7591,VALID,0,VALID,19.7613,VALID,43,VALID,0.619922,
2011-10-04, 02:17:04,VALID,916.702,VALID,0,VALID,94.8734,VALID,0,VALID,19.7028,VALID,42,VALID,0.574219,
2011-10-04, 02:18:04,VALID,916.702,VALID,0,VALID,95.0411,VALID,0,VALID,19.7238,VALID,42,VALID,0.613672,
2011-10-04, 02:19:04,VALID,916.711,VALID,0,VALID,95.186,VALID,0,VALID,19.6818,VALID,42,VALID,0.594922,
2011-10-04, 02:20:04,VALID,916.736,VALID,0,VALID,95.3537,VALID,0.107441,VALID,19.6623,VALID,42,VALID,0.3625,
2011-10-04, 02:21:04,VALID,916.724,VALID,0,VALID,95.5062,VALID,0.107441,VALID,19.6623,VALID,43,VALID,0.234375,
2011-10-04, 02:22:04,VALID,916.742,VALID,0,VALID,95.529,VALID,0.107441,VALID,19.6833,VALID,42,VALID,0.025,
2011-10-04, 02:23:04,VALID,916.751,VALID,0,VALID,95.529,VALID,0,VALID,19.6623,VALID,42,VALID,0.484375,
2011-10-04, 02:24:04,VALID,916.751,VALID,0,VALID,95.5367,VALID,0,VALID,19.6818,VALID,43,VALID,0.524219,
2011-10-04, 02:25:04,VALID,916.743,VALID,0,VALID,95.4833,VALID,0,VALID,19.6818,VALID,42,VALID,0.417188,
2011-10-04, 02:26:04,VALID,916.776,VALID,0,VALID,95.5214,VALID,0,VALID,19.6818,VALID,43,VALID,0.491797,
2011-10-04, 02:27:04,VALID,916.767,VALID,0,VALID,95.4833,VALID,0.107441,VALID,19.7013,VALID,43,VALID,0.283203,
2011-10-04, 02:28:04,VALID,916.744,VALID,0,VALID,95.4985,VALID,0,VALID,19.7208,VALID,42,VALID,0.212891,
2011-10-04, 02:29:04,VALID,916.771,VALID,0,VALID,95.4757,VALID,0.107441,VALID,19.7403,VALID,42,VALID,0.329688,
2011-10-04, 02:30:04,VALID,916.71,VALID,0,VALID,95.4071,VALID,0.107441,VALID,19.7208,VALID,42,VALID,0.341016,
2011-10-04, 02:31:04,VALID,916.67,VALID,0,VALID,95.3079,VALID,0.107441,VALID,19.7208,VALID,43,VALID,0.351563,
2011-10-04, 02:32:04,VALID,916.666,VALID,0,VALID,95.3308,VALID,0,VALID,19.7418,VALID,42,VALID,0.326953,
2011-10-04, 02:33:04,VALID,916.681,VALID,0,VALID,95.1936,VALID,0.107441,VALID,19.7208,VALID,42,VALID,0.397266,
2011-10-04, 02:34:04,VALID,916.656,VALID,0,VALID,95.1631,VALID,0,VALID,19.7028,VALID,42,VALID,0.220313,
2011-10-04, 02:35:04,VALID,916.628,VALID,0,VALID,95.1783,VALID,0,VALID,19.6833,VALID,42,VALID,0.517969,
2011-10-04, 02:36:04,VALID,916.642,VALID,0,VALID,95.125,VALID,0,VALID,19.6638,VALID,43,VALID,0.582031,
2011-10-04, 02:37:04,VALID,916.63,VALID,0,VALID,95.0335,VALID,0,VALID,19.6638,VALID,43,VALID,0.450781,
2011-10-04, 02:38:04,VALID,916.647,VALID,0,VALID,94.9801,VALID,0,VALID,19.6833,VALID,42,VALID,0.494922,
2011-10-04, 02:39:04,VALID,916.629,VALID,0,VALID,94.9039,VALID,0,VALID,19.6833,VALID,42,VALID,0.354297,
2011-10-04, 02:40:04,VALID,916.597,VALID,0,VALID,94.881,VALID,0,VALID,19.7238,VALID,42,VALID,0.329688,
2011-10-04, 02:41:04,VALID,916.605,VALID,0,VALID,95.003,VALID,0,VALID,19.7028,VALID,43,VALID,0.291797,
2011-10-04, 02:42:04,VALID,916.59,VALID,0,VALID,95.125,VALID,0,VALID,19.7028,VALID,42,VALID,0.239453,
2011-10-04, 02:43:04,VALID,916.583,VALID,0,VALID,95.1326,VALID,0,VALID,19.7028,VALID,42,VALID,0.228125,
2011-10-04, 02:44:04,VALID,916.587,VALID,0,VALID,95.1555,VALID,0,VALID,19.6833,VALID,42,VALID,0.470313,
2011-10-04, 02:45:04,VALID,916.621,VALID,0,VALID,95.186,VALID,0,VALID,19.7028,VALID,42,VALID,0.790234,
2011-10-04, 02:46:04,VALID,916.607,VALID,0,VALID,95.2241,VALID,0,VALID,19.6833,VALID,42,VALID,0.515625,
2011-10-04, 02:47:04,VALID,916.602,VALID,0,VALID,95.247,VALID,0,VALID,19.6833,VALID,42,VALID,0.486719,
2011-10-04, 02:48:04,VALID,916.636,VALID,0,VALID,95.2927,VALID,0,VALID,19.6638,VALID,42,VALID,0.407031,
2011-10-04, 02:49:04,VALID,916.625,VALID,0,VALID,95.2088,VALID,0,VALID,19.6848,VALID,42,VALID,0.721484,
2011-10-04, 02:50:04,VALID,916.65,VALID,0,VALID,95.2088,VALID,0,VALID,19.6443,VALID,42,VALID,0.588281,
2011-10-04, 02:51:04,VALID,916.612,VALID,0,VALID,95.1021,VALID,0,VALID,19.6638,VALID,42,VALID,0.739062,
2011-10-04, 02:52:04,VALID,916.608,VALID,0,VALID,95.0564,VALID,0,VALID,19.6833,VALID,42,VALID,0.691406,
2011-10-04, 02:53:04,VALID,916.617,VALID,0,VALID,95.0259,VALID,0,VALID,19.6833,VALID,42,VALID,0.340234,
2011-10-04, 02:54:04,VALID,916.611,VALID,0,VALID,94.9573,VALID,0,VALID,19.7028,VALID,42,VALID,0.519922,
2011-10-04, 02:55:04,VALID,916.575,VALID,0,VALID,94.8429,VALID,0,VALID,19.7028,VALID,42,VALID,0.500781,
2011-10-04, 02:56:04,VALID,916.593,VALID,0,VALID,94.7896,VALID,0,VALID,19.7028,VALID,42,VALID,0.274219,
2011-10-04, 02:57:04,VALID,916.554,VALID,0,VALID,94.7743,VALID,0,VALID,19.7223,VALID,42,VALID,0.409766,
2011-10-04, 02:58:04,VALID,916.555,VALID,0,VALID,94.7362,VALID,0,VALID,19.7223,VALID,42,VALID,0.182031,
2011-10-04, 02:59:04,VALID,916.549,VALID,0,VALID,94.7667,VALID,0,VALID,19.7223,VALID,42,VALID,0.246484,
2011-10-04, 03:00:04,VALID,916.532,VALID,0,VALID,94.8124,VALID,0,VALID,19.7418,VALID,42,VALID,0.0398437,
2011-10-04, 03:01:04,VALID,916.543,VALID,0,VALID,94.8353,VALID,0,VALID,19.7223,VALID,42,VALID,0,
2011-10-04, 03:02:04,VALID,916.523,VALID,0,VALID,94.8734,VALID,0,VALID,19.7028,VALID,42,VALID,0.119922,
2011-10-04, 03:03:04,VALID,916.485,VALID,0,VALID,94.9878,VALID,0,VALID,19.7028,VALID,42,VALID,0.318359,
2011-10-04, 03:04:04,VALID,916.469,VALID,0,VALID,95.0716,VALID,0,VALID,19.6833,VALID,42,VALID,0.18125,
2011-10-04, 03:05:04,VALID,916.48,VALID,0,VALID,95.1936,VALID,0,VALID,19.6833,VALID,42,VALID,0.374609,
2011-10-04, 03:06:04,VALID,916.48,VALID,0,VALID,95.2698,VALID,0,VALID,19.6638,VALID,42,VALID,0.423047,
2011-10-04, 03:07:04,VALID,916.475,VALID,0,VALID,95.3689,VALID,0,VALID,19.6833,VALID,42,VALID,0.346094,
2011-10-04, 03:08:04,VALID,916.473,VALID,0,VALID,95.4604,VALID,0,VALID,19.6638,VALID,42,VALID,0.508984,
2011-10-04, 03:09:04,VALID,916.47,VALID,0,VALID,95.5214,VALID,0,VALID,19.6428,VALID,42,VALID,0.123047,
2011-10-04, 03:10:04,VALID,916.476,VALID,0,VALID,95.5824,VALID,0,VALID,19.6638,VALID,42,VALID,0.275,
2011-10-04, 03:11:04,VALID,916.467,VALID,0,VALID,95.7044,VALID,0,VALID,19.6638,VALID,42,VALID,0.107422,
2011-10-04, 03:12:04,VALID,916.445,VALID,0,VALID,95.7425,VALID,0,VALID,19.6638,VALID,42,VALID,0.524609,
2011-10-04, 03:13:04,VALID,916.44,VALID,0,VALID,95.7425,VALID,0,VALID,19.6428,VALID,42,VALID,0.244922,
2011-10-04, 03:14:04,VALID,916.427,VALID,0,VALID,95.7654,VALID,0,VALID,19.6638,VALID,42,VALID,0.107813,
2011-10-04, 03:15:04,VALID,916.455,VALID,0,VALID,95.7806,VALID,0,VALID,19.6638,VALID,42,VALID,0.00273437,
2011-10-04, 03:16:04,VALID,916.439,VALID,0,VALID,95.7654,VALID,0,VALID,19.6443,VALID,42,VALID,0.2,
2011-10-04, 03:17:04,VALID,916.45,VALID,0,VALID,95.7425,VALID,0,VALID,19.6638,VALID,42,VALID,0.00585938,
2011-10-04, 03:18:04,VALID,916.458,VALID,0,VALID,95.7349,VALID,0,VALID,19.6638,VALID,42,VALID,0,
2011-10-04, 03:19:04,VALID,916.485,VALID,0,VALID,95.7196,VALID,0,VALID,19.7028,VALID,42,VALID,0.330859,
2011-10-04, 03:20:04,VALID,916.47,VALID,0,VALID,95.6739,VALID,0,VALID,19.7223,VALID,42,VALID,0.0199219,
2011-10-04, 03:21:04,VALID,916.457,VALID,0,VALID,95.6815,VALID,0,VALID,19.7223,VALID,42,VALID,0.115625,
2011-10-04, 03:22:04,VALID,916.495,VALID,0,VALID,95.5824,VALID,0,VALID,19.7223,VALID,42,VALID,0.48125,
2011-10-04, 03:23:04,VALID,916.429,VALID,0,VALID,95.5824,VALID,0,VALID,19.7223,VALID,42,VALID,0.00195313,
2011-10-04, 03:24:04,VALID,916.424,VALID,0,VALID,95.6434,VALID,0,VALID,19.7223,VALID,42,VALID,0.117578,
2011-10-04, 03:25:04,VALID,916.425,VALID,0,VALID,95.5976,VALID,0,VALID,19.7223,VALID,42,VALID,0.09375,
2011-10-04, 03:26:04,VALID,916.433,VALID,0,VALID,95.6053,VALID,0,VALID,19.7223,VALID,42,VALID,0.0753906,
2011-10-04, 03:27:04,VALID,916.42,VALID,0,VALID,95.6434,VALID,0,VALID,19.7223,VALID,42,VALID,0,
2011-10-04, 03:28:04,VALID,916.455,VALID,0,VALID,95.6434,VALID,0,VALID,19.7223,VALID,42,VALID,0,
2011-10-04, 03:29:04,VALID,916.429,VALID,0,VALID,95.6586,VALID,0,VALID,19.7223,VALID,42,VALID,0.36875,
2011-10-04, 03:30:04,VALID,916.435,VALID,0,VALID,95.6815,VALID,0,VALID,19.7223,VALID,42,VALID,0.15,
2011-10-04, 03:31:04,VALID,916.41,VALID,0,VALID,95.6967,VALID,0,VALID,19.7433,VALID,42,VALID,0,
2011-10-04, 03:32:04,VALID,916.435,VALID,0,VALID,95.651,VALID,0,VALID,19.7028,VALID,42,VALID,0,
2011-10-04, 03:33:04,VALID,916.416,VALID,0,VALID,95.6586,VALID,0,VALID,19.7028,VALID,42,VALID,0.0285156,
2011-10-04, 03:34:04,VALID,916.426,VALID,0,VALID,95.6662,VALID,0,VALID,19.7238,VALID,42,VALID,0.431641,
2011-10-04, 03:35:04,VALID,916.433,VALID,0,VALID,95.6586,VALID,0,VALID,19.7028,VALID,42,VALID,0.307813,
2011-10-04, 03:36:04,VALID,916.432,VALID,0,VALID,95.6739,VALID,0,VALID,19.7028,VALID,42,VALID,0.306641,
2011-10-04, 03:37:04,VALID,916.406,VALID,0,VALID,95.5976,VALID,0,VALID,19.7028,VALID,42,VALID,0.285937,
2011-10-04, 03:38:04,VALID,916.397,VALID,0,VALID,95.5671,VALID,0,VALID,19.6638,VALID,42,VALID,0.244922,
2011-10-04, 03:39:04,VALID,916.396,VALID,0,VALID,95.6129,VALID,0,VALID,19.6638,VALID,42,VALID,0,
2011-10-04, 03:40:04,VALID,916.407,VALID,0,VALID,95.6053,VALID,0,VALID,19.6638,VALID,42,VALID,0,
2011-10-04, 03:41:04,VALID,916.385,VALID,0,VALID,95.5824,VALID,0,VALID,19.6443,VALID,42,VALID,0,
2011-10-04, 03:42:04,VALID,916.439,VALID,0,VALID,95.6053,VALID,0,VALID,19.6443,VALID,42,VALID,0.384766,
2011-10-04, 03:43:04,VALID,916.454,VALID,0,VALID,95.6434,VALID,0,VALID,19.6443,VALID,42,VALID,0.500391,
2011-10-04, 03:44:04,VALID,916.432,VALID,0,VALID,95.6053,VALID,0,VALID,19.6053,VALID,42,VALID,0.282813,
2011-10-04, 03:45:04,VALID,916.445,VALID,0,VALID,95.6281,VALID,0,VALID,19.5843,VALID,42,VALID,0.232031,
2011-10-04, 03:46:04,VALID,916.46,VALID,0,VALID,95.6586,VALID,0,VALID,19.5858,VALID,42,VALID,0.164453,
2011-10-04, 03:47:04,VALID,916.481,VALID,0,VALID,95.6967,VALID,0,VALID,19.5858,VALID,42,VALID,0.176563,